Time,TemperatureF,DewpointF,PressureIn,WindDirection,WindDirectionDegrees,WindSpeedMPH,WindSpeedGustMPH,Humidity,HourlyPrecipIn,Conditions,Clouds,dailyrainin,SolarRadiationWatts/m^2,SoftwareType,DateUTC
2013-06-06 00:03:00,76.0,75.0,-100.00,ESE,121,4.0,-999.0,96,0.00,,,-99.99,0.000000,,2013-06-06 04:03:00,
2013-06-06 00:13:00,76.0,75.0,-100.00,SE,128,4.0,-999.0,96,0.00,,,-99.99,0.000000,,2013-06-06 04:13:00,
2013-06-06 00:23:00,76.0,75.0,-100.00,SE,128,4.0,-999.0,96,0.00,,,-99.99,0.000000,,2013-06-06 04:23:00,
2013-06-06 00:33:00,76.0,75.0,-100.00,SE,129,4.0,-999.0,96,0.03,,,-99.99,0.000000,,2013-06-06 04:33:00,
2013-06-06 00:42:00,76.0,75.0,-100.00,SE,131,4.0,-999.0,96,0.08,,,-99.99,0.000000,,2013-06-06 04:42:00,
2013-06-06 00:53:00,76.0,75.0,-100.00,SE,131,4.0,-999.0,96,0.08,,,-99.99,0.000000,,2013-06-06 04:53:00,
2013-06-06 01:02:00,76.0,75.0,-100.00,ESE,123,5.0,-999.0,96,0.03,,,-99.99,0.000000,,2013-06-06 05:02:00,
2013-06-06 01:12:00,76.0,75.0,-100.00,SE,130,6.0,-999.0,96,0.03,,,-99.99,0.000000,,2013-06-06 05:12:00,
2013-06-06 01:22:00,76.0,75.0,-100.00,SE,130,6.0,-999.0,96,0.03,,,-99.99,0.000000,,2013-06-06 05:22:00,
2013-06-06 01:32:00,75.0,74.0,-100.00,SE,129,7.0,-999.0,96,0.00,,,-99.99,0.000000,,2013-06-06 05:32:00,
2013-06-06 01:42:00,75.0,73.0,-100.00,SE,128,7.0,-999.0,95,0.03,,,-99.99,0.000000,,2013-06-06 05:42:00,
2013-06-06 01:52:00,75.0,73.0,-100.00,SE,128,7.0,-999.0,95,0.03,,,-99.99,0.000000,,2013-06-06 05:52:00,
2013-06-06 02:02:00,74.0,73.0,-100.00,SE,132,6.0,-999.0,94,0.03,,,-99.99,0.000000,,2013-06-06 06:02:00,
2013-06-06 02:12:00,74.0,72.0,-100.00,SE,128,6.0,-999.0,94,0.03,,,-99.99,0.000000,,2013-06-06 06:12:00,
2013-06-06 02:22:00,74.0,72.0,-100.00,SE,128,6.0,-999.0,94,0.03,,,-99.99,0.000000,,2013-06-06 06:22:00,
2013-06-06 02:32:00,74.0,73.0,-100.00,SE,128,5.0,-999.0,94,0.03,,,-99.99,0.000000,,2013-06-06 06:32:00,
2013-06-06 02:42:00,74.0,73.0,-100.00,SE,128,4.0,-999.0,95,0.03,,,-99.99,0.000000,,2013-06-06 06:42:00,
2013-06-06 02:52:00,74.0,73.0,-100.00,SE,128,4.0,-999.0,95,0.03,,,-99.99,0.000000,,2013-06-06 06:52:00,
2013-06-06 03:02:00,75.0,73.0,-100.00,ESE,119,5.0,-999.0,95,0.08,,,-99.99,0.000000,,2013-06-06 07:02:00,
2013-06-06 03:12:00,75.0,74.0,-100.00,ESE,113,5.0,-999.0,96,0.08,,,-99.99,0.000000,,2013-06-06 07:12:00,
2013-06-06 03:22:00,75.0,74.0,-100.00,ESE,113,5.0,-999.0,96,0.08,,,-99.99,0.000000,,2013-06-06 07:22:00,
2013-06-06 03:32:00,75.0,74.0,-100.00,ESE,106,7.0,-999.0,96,0.03,,,-99.99,0.000000,,2013-06-06 07:32:00,
2013-06-06 03:42:00,75.0,74.0,-100.00,ESE,108,7.0,-999.0,96,0.00,,,-99.99,0.000000,,2013-06-06 07:42:00,
2013-06-06 03:52:00,75.0,74.0,-100.00,ESE,108,7.0,-999.0,96,0.00,,,-99.99,0.000000,,2013-06-06 07:52:00,
2013-06-06 04:02:00,75.0,74.0,-100.00,East,98,7.0,-999.0,96,0.00,,,-99.99,0.000000,,2013-06-06 08:02:00,
2013-06-06 04:12:00,75.0,74.0,-100.00,East,100,6.0,-999.0,96,0.08,,,-99.99,0.000000,,2013-06-06 08:12:00,
2013-06-06 04:22:00,75.0,74.0,-100.00,East,100,6.0,-999.0,96,0.08,,,-99.99,0.000000,,2013-06-06 08:22:00,
2013-06-06 04:32:00,75.0,74.0,-100.00,ESE,112,7.0,-999.0,96,0.08,,,-99.99,0.000000,,2013-06-06 08:32:00,
2013-06-06 04:42:00,75.0,74.0,-100.00,East,98,7.0,-999.0,96,0.14,,,-99.99,0.000000,,2013-06-06 08:42:00,
2013-06-06 04:52:00,75.0,74.0,-100.00,East,98,7.0,-999.0,96,0.14,,,-99.99,0.000000,,2013-06-06 08:52:00,
2013-06-06 05:02:00,75.0,74.0,-100.00,East,91,8.0,-999.0,96,0.14,,,-99.99,0.000000,,2013-06-06 09:02:00,
2013-06-06 05:12:00,75.0,74.0,-100.00,East,93,10.0,-999.0,96,0.30,,,-99.99,0.000000,,2013-06-06 09:12:00,
2013-06-06 05:22:00,75.0,74.0,-100.00,East,93,10.0,-999.0,96,0.30,,,-99.99,0.000000,,2013-06-06 09:22:00,
2013-06-06 05:33:00,75.0,74.0,-100.00,ESE,117,7.0,-999.0,97,0.49,,,-99.99,0.000000,,2013-06-06 09:33:00,
2013-06-06 05:43:00,75.0,74.0,-100.00,ESE,114,12.0,-999.0,96,1.59,,,-99.99,0.000000,,2013-06-06 09:43:00,
2013-06-06 05:53:00,75.0,74.0,-100.00,ESE,114,12.0,-999.0,96,1.59,,,-99.99,0.000000,,2013-06-06 09:53:00,
2013-06-06 06:03:00,74.0,73.0,-100.00,SE,125,13.0,-999.0,97,0.27,,,-99.99,0.000000,,2013-06-06 10:03:00,
2013-06-06 06:12:00,73.0,72.0,-100.00,SE,131,11.0,-999.0,97,0.19,,,-99.99,0.000000,,2013-06-06 10:12:00,
2013-06-06 06:23:00,73.0,72.0,-100.00,SE,131,11.0,-999.0,97,0.19,,,-99.99,0.000000,,2013-06-06 10:23:00,
2013-06-06 06:33:00,74.0,73.0,-100.00,SE,139,7.0,-999.0,97,0.22,,,-99.99,0.000000,,2013-06-06 10:33:00,
2013-06-06 06:42:00,74.0,73.0,-100.00,SE,133,8.0,-999.0,97,0.41,,,-99.99,0.000000,,2013-06-06 10:42:00,
2013-06-06 06:53:00,74.0,73.0,-100.00,SE,133,8.0,-999.0,97,0.41,,,-99.99,0.000000,,2013-06-06 10:53:00,
2013-06-06 07:02:00,74.0,73.0,-100.00,SE,139,7.0,-999.0,97,0.08,,,-99.99,1.800000,,2013-06-06 11:02:00,
2013-06-06 07:12:00,74.0,73.0,-100.00,SE,136,6.0,-999.0,97,0.00,,,-99.99,13.600000,,2013-06-06 11:12:00,
2013-06-06 07:22:00,74.0,73.0,-100.00,SE,136,6.0,-999.0,97,0.00,,,-99.99,13.600000,,2013-06-06 11:22:00,
2013-06-06 07:32:00,74.0,73.0,-100.00,SE,130,6.0,-999.0,97,0.00,,,-99.99,15.900000,,2013-06-06 11:32:00,
2013-06-06 07:42:00,74.0,73.0,-100.00,SE,127,7.0,-999.0,97,0.00,,,-99.99,19.500000,,2013-06-06 11:42:00,
2013-06-06 07:52:00,74.0,73.0,-100.00,SE,127,7.0,-999.0,97,0.00,,,-99.99,19.500000,,2013-06-06 11:52:00,
2013-06-06 08:03:00,74.0,73.0,-100.00,SE,126,7.0,-999.0,97,0.00,,,-99.99,20.700001,,2013-06-06 12:03:00,
2013-06-06 08:12:00,74.0,73.0,-100.00,SE,132,6.0,-999.0,97,0.00,,,-99.99,28.700001,,2013-06-06 12:12:00,
2013-06-06 08:23:00,74.0,73.0,-100.00,SE,132,6.0,-999.0,97,0.00,,,-99.99,28.700001,,2013-06-06 12:23:00,
2013-06-06 08:33:00,74.0,73.0,-100.00,SE,133,7.0,-999.0,97,0.00,,,-99.99,28.600000,,2013-06-06 12:33:00,
2013-06-06 08:43:00,74.0,73.0,-100.00,SE,130,7.0,-999.0,97,0.03,,,-99.99,29.500000,,2013-06-06 12:43:00,
2013-06-06 08:53:00,74.0,73.0,-100.00,SE,130,7.0,-999.0,97,0.03,,,-99.99,29.500000,,2013-06-06 12:53:00,
2013-06-06 09:03:00,74.0,73.0,-100.00,SE,131,7.0,-999.0,97,0.03,,,-99.99,50.400002,,2013-06-06 13:03:00,
2013-06-06 09:13:00,74.0,73.0,-100.00,SE,131,6.0,-999.0,97,0.00,,,-99.99,66.400002,,2013-06-06 13:13:00,
2013-06-06 09:23:00,74.0,73.0,-100.00,SE,131,6.0,-999.0,97,0.00,,,-99.99,66.400002,,2013-06-06 13:23:00,
2013-06-06 09:33:00,74.0,73.0,-100.00,SE,134,7.0,-999.0,97,0.00,,,-99.99,64.400002,,2013-06-06 13:33:00,
2013-06-06 09:43:00,74.0,73.0,-100.00,SE,132,8.0,-999.0,97,0.03,,,-99.99,64.800003,,2013-06-06 13:43:00,
2013-06-06 09:53:00,74.0,73.0,-100.00,SE,132,8.0,-999.0,97,0.03,,,-99.99,64.800003,,2013-06-06 13:53:00,
2013-06-06 10:03:00,74.0,73.0,-100.00,SE,139,7.0,-999.0,96,0.03,,,-99.99,47.500000,,2013-06-06 14:03:00,
2013-06-06 10:13:00,74.0,73.0,-100.00,SE,146,5.0,-999.0,97,0.68,,,-99.99,18.000000,,2013-06-06 14:13:00,
2013-06-06 10:23:00,74.0,73.0,-100.00,SE,146,5.0,-999.0,97,0.68,,,-99.99,18.000000,,2013-06-06 14:23:00,
2013-06-06 10:33:00,74.0,73.0,-100.00,SSE,147,6.0,-999.0,97,0.11,,,-99.99,22.299999,,2013-06-06 14:33:00,
2013-06-06 10:43:00,74.0,73.0,-100.00,SSE,147,6.0,-999.0,97,0.08,,,-99.99,31.500000,,2013-06-06 14:43:00,
2013-06-06 10:53:00,74.0,73.0,-100.00,SSE,147,6.0,-999.0,97,0.08,,,-99.99,31.500000,,2013-06-06 14:53:00,
2013-06-06 11:03:00,74.0,73.0,-100.00,SE,142,7.0,-999.0,97,0.03,,,-99.99,72.500000,,2013-06-06 15:03:00,
2013-06-06 11:13:00,74.0,73.0,-100.00,SSE,150,7.0,-999.0,97,0.00,,,-99.99,71.800003,,2013-06-06 15:13:00,
2013-06-06 11:23:00,74.0,73.0,-100.00,SSE,150,7.0,-999.0,97,0.00,,,-99.99,71.800003,,2013-06-06 15:23:00,
2013-06-06 11:33:00,75.0,74.0,-100.00,SSE,147,6.0,-999.0,97,0.03,,,-99.99,50.200001,,2013-06-06 15:33:00,
2013-06-06 11:43:00,75.0,74.0,-100.00,SE,146,6.0,-999.0,97,0.14,,,-99.99,35.299999,,2013-06-06 15:43:00,
2013-06-06 11:53:00,75.0,74.0,-100.00,SE,146,6.0,-999.0,97,0.14,,,-99.99,35.299999,,2013-06-06 15:53:00,
2013-06-06 12:03:00,75.0,74.0,-100.00,SSE,161,5.0,-999.0,97,0.11,,,-99.99,34.900002,,2013-06-06 16:03:00,
2013-06-06 12:13:00,75.0,74.0,-100.00,SSE,168,5.0,-999.0,97,0.08,,,-99.99,44.099998,,2013-06-06 16:13:00,
2013-06-06 12:23:00,75.0,74.0,-100.00,SSE,168,5.0,-999.0,97,0.08,,,-99.99,44.099998,,2013-06-06 16:23:00,
2013-06-06 12:33:00,76.0,75.0,-100.00,SSE,158,5.0,-999.0,97,0.11,,,-99.99,66.199997,,2013-06-06 16:33:00,
2013-06-06 12:44:00,76.0,75.0,-100.00,SSE,157,6.0,-999.0,97,0.08,,,-99.99,79.099998,,2013-06-06 16:44:00,
2013-06-06 12:53:00,76.0,75.0,-100.00,SSE,157,6.0,-999.0,97,0.08,,,-99.99,79.099998,,2013-06-06 16:53:00,
2013-06-06 13:03:00,76.0,75.0,-100.00,SSE,158,6.0,-999.0,97,0.14,,,-99.99,59.599998,,2013-06-06 17:03:00,
2013-06-06 13:13:00,76.0,75.0,-100.00,SSE,162,5.0,-999.0,97,0.19,,,-99.99,32.099998,,2013-06-06 17:13:00,
2013-06-06 13:23:00,76.0,75.0,-100.00,SSE,162,5.0,-999.0,97,0.19,,,-99.99,32.099998,,2013-06-06 17:23:00,
2013-06-06 13:33:00,76.0,75.0,-100.00,SSE,164,5.0,-999.0,97,0.22,,,-99.99,40.599998,,2013-06-06 17:33:00,
2013-06-06 13:43:00,76.0,75.0,-100.00,SSE,165,6.0,-999.0,97,0.14,,,-99.99,81.500000,,2013-06-06 17:43:00,
2013-06-06 13:53:00,76.0,75.0,-100.00,SSE,165,6.0,-999.0,97,0.14,,,-99.99,81.500000,,2013-06-06 17:53:00,
2013-06-06 14:03:00,75.0,75.0,-100.00,SSE,166,6.0,-999.0,97,0.11,,,-99.99,130.199997,,2013-06-06 18:03:00,
2013-06-06 14:13:00,75.0,74.0,-100.00,South,174,4.0,-999.0,97,0.00,,,-99.99,197.300003,,2013-06-06 18:13:00,
2013-06-06 14:23:00,75.0,74.0,-100.00,South,174,4.0,-999.0,97,0.00,,,-99.99,197.300003,,2013-06-06 18:23:00,
2013-06-06 14:33:00,76.0,75.0,-100.00,South,181,4.0,-999.0,96,0.00,,,-99.99,323.399994,,2013-06-06 18:33:00,
2013-06-06 14:43:00,77.0,76.0,-100.00,South,180,5.0,-999.0,95,0.00,,,-99.99,357.200012,,2013-06-06 18:43:00,
2013-06-06 14:53:00,77.0,76.0,-100.00,South,180,5.0,-999.0,95,0.00,,,-99.99,357.200012,,2013-06-06 18:53:00,
2013-06-06 15:03:00,79.0,76.0,-100.00,South,181,5.0,-999.0,93,0.00,,,-99.99,452.200012,,2013-06-06 19:03:00,
2013-06-06 15:13:00,79.0,75.0,-100.00,South,180,5.0,-999.0,88,0.00,,,-99.99,281.200012,,2013-06-06 19:13:00,
2013-06-06 15:23:00,79.0,75.0,-100.00,South,180,5.0,-999.0,88,0.00,,,-99.99,281.200012,,2013-06-06 19:23:00,
2013-06-06 15:33:00,78.0,74.0,-100.00,South,187,5.0,-999.0,87,0.00,,,-99.99,146.600006,,2013-06-06 19:33:00,
2013-06-06 15:43:00,77.0,72.0,-100.00,SSW,203,6.0,-999.0,85,0.00,,,-99.99,87.099998,,2013-06-06 19:43:00,
2013-06-06 15:53:00,77.0,72.0,-100.00,SSW,203,6.0,-999.0,85,0.00,,,-99.99,87.099998,,2013-06-06 19:53:00,
2013-06-06 16:03:00,76.0,72.0,-100.00,South,191,5.0,-999.0,85,0.00,,,-99.99,129.899994,,2013-06-06 20:03:00,
2013-06-06 16:13:00,76.0,72.0,-100.00,South,191,4.0,-999.0,87,0.00,,,-99.99,161.100006,,2013-06-06 20:13:00,
2013-06-06 16:23:00,76.0,72.0,-100.00,South,191,4.0,-999.0,87,0.00,,,-99.99,161.100006,,2013-06-06 20:23:00,
2013-06-06 16:33:00,75.0,71.0,-100.00,SSW,195,5.0,-999.0,86,0.00,,,-99.99,132.100006,,2013-06-06 20:33:00,
2013-06-06 16:43:00,75.0,71.0,-100.00,South,187,4.0,-999.0,86,0.00,,,-99.99,156.199997,,2013-06-06 20:43:00,
2013-06-06 16:53:00,75.0,71.0,-100.00,South,187,4.0,-999.0,86,0.00,,,-99.99,156.199997,,2013-06-06 20:53:00,
2013-06-06 17:03:00,76.0,71.0,-100.00,SSW,198,4.0,-999.0,85,0.00,,,-99.99,251.800003,,2013-06-06 21:03:00,
2013-06-06 17:13:00,75.0,71.0,-100.00,SSW,195,4.0,-999.0,85,0.00,,,-99.99,98.199997,,2013-06-06 21:13:00,
2013-06-06 17:23:00,75.0,71.0,-100.00,SSW,195,4.0,-999.0,85,0.00,,,-99.99,98.199997,,2013-06-06 21:23:00,
2013-06-06 17:33:00,75.0,71.0,-100.00,SSW,197,4.0,-999.0,88,0.00,,,-99.99,103.699997,,2013-06-06 21:33:00,
2013-06-06 17:44:00,76.0,72.0,-100.00,South,186,4.0,-999.0,88,0.00,,,-99.99,151.500000,,2013-06-06 21:44:00,
2013-06-06 17:53:00,76.0,72.0,-100.00,South,186,4.0,-999.0,88,0.00,,,-99.99,151.500000,,2013-06-06 21:53:00,
2013-06-06 18:03:00,76.0,73.0,-100.00,South,187,4.0,-999.0,89,0.00,,,-99.99,180.699997,,2013-06-06 22:03:00,
2013-06-06 18:13:00,76.0,73.0,-100.00,South,179,4.0,-999.0,90,0.00,,,-99.99,137.100006,,2013-06-06 22:13:00,
2013-06-06 18:23:00,76.0,73.0,-100.00,South,179,4.0,-999.0,90,0.00,,,-99.99,137.100006,,2013-06-06 22:23:00,
2013-06-06 18:33:00,77.0,74.0,-100.00,South,190,4.0,-999.0,90,0.00,,,-99.99,146.899994,,2013-06-06 22:33:00,
2013-06-06 18:43:00,77.0,74.0,-100.00,South,188,4.0,-999.0,91,0.00,,,-99.99,146.100006,,2013-06-06 22:43:00,
2013-06-06 18:53:00,77.0,74.0,-100.00,South,188,4.0,-999.0,91,0.00,,,-99.99,146.100006,,2013-06-06 22:53:00,
2013-06-06 19:02:00,77.0,74.0,-100.00,SSW,195,4.0,-999.0,90,0.00,,,-99.99,58.200001,,2013-06-06 23:02:00,
2013-06-06 19:13:00,76.0,74.0,-100.00,WSW,239,6.0,-999.0,93,0.60,,,-99.99,34.700001,,2013-06-06 23:13:00,
2013-06-06 19:22:00,76.0,74.0,-100.00,WSW,239,6.0,-999.0,93,0.60,,,-99.99,34.700001,,2013-06-06 23:22:00,
2013-06-06 19:33:00,75.0,73.0,-100.00,SW,230,7.0,-999.0,95,0.33,,,-99.99,38.700001,,2013-06-06 23:33:00,
2013-06-06 19:43:00,75.0,74.0,-100.00,SW,231,7.0,-999.0,95,0.00,,,-99.99,90.199997,,2013-06-06 23:43:00,
2013-06-06 19:52:00,75.0,74.0,-100.00,SW,231,7.0,-999.0,95,0.00,,,-99.99,90.199997,,2013-06-06 23:52:00,
2013-06-06 20:02:00,75.0,74.0,-100.00,SW,224,6.0,-999.0,96,0.00,,,-99.99,56.400002,,2013-06-07 00:02:00,
2013-06-06 20:13:00,75.0,74.0,-100.00,SW,222,6.0,-999.0,96,0.00,,,-99.99,36.900002,,2013-06-07 00:13:00,
2013-06-06 20:22:00,75.0,74.0,-100.00,SW,222,6.0,-999.0,96,0.00,,,-99.99,36.900002,,2013-06-07 00:22:00,
2013-06-06 20:32:00,75.0,74.0,-100.00,SW,226,6.0,-999.0,95,0.00,,,-99.99,19.700001,,2013-06-07 00:32:00,
2013-06-06 20:42:00,75.0,74.0,-100.00,SW,227,5.0,-999.0,95,0.00,,,-99.99,10.100000,,2013-06-07 00:42:00,
2013-06-06 20:52:00,75.0,74.0,-100.00,SW,227,5.0,-999.0,95,0.00,,,-99.99,10.100000,,2013-06-07 00:52:00,
2013-06-06 21:03:00,75.0,73.0,-100.00,SW,224,4.0,-999.0,95,0.00,,,-99.99,1.500000,,2013-06-07 01:03:00,
2013-06-06 21:12:00,75.0,73.0,-100.00,SW,222,4.0,-999.0,95,0.00,,,-99.99,0.000000,,2013-06-07 01:12:00,
2013-06-06 21:22:00,75.0,73.0,-100.00,SW,222,4.0,-999.0,95,0.00,,,-99.99,0.000000,,2013-06-07 01:22:00,
2013-06-06 21:32:00,75.0,74.0,-100.00,SSW,210,3.0,-999.0,95,0.00,,,-99.99,0.000000,,2013-06-07 01:32:00,
2013-06-06 21:42:00,75.0,74.0,-100.00,SSW,209,4.0,-999.0,95,0.00,,,-99.99,0.000000,,2013-06-07 01:42:00,
2013-06-06 21:52:00,75.0,74.0,-100.00,SSW,209,4.0,-999.0,95,0.00,,,-99.99,0.000000,,2013-06-07 01:52:00,
2013-06-06 22:02:00,75.0,74.0,-100.00,SW,214,4.0,-999.0,95,0.00,,,-99.99,0.000000,,2013-06-07 02:02:00,
2013-06-06 22:12:00,75.0,74.0,-100.00,SSW,204,3.0,-999.0,95,0.00,,,-99.99,0.000000,,2013-06-07 02:12:00,
2013-06-06 22:22:00,75.0,74.0,-100.00,SSW,204,3.0,-999.0,95,0.00,,,-99.99,0.000000,,2013-06-07 02:22:00,
2013-06-06 22:32:00,75.0,74.0,-100.00,SW,219,4.0,-999.0,94,0.00,,,-99.99,0.000000,,2013-06-07 02:32:00,
2013-06-06 22:42:00,75.0,73.0,-100.00,SW,222,4.0,-999.0,94,0.00,,,-99.99,0.000000,,2013-06-07 02:42:00,
2013-06-06 22:52:00,75.0,73.0,-100.00,SW,222,4.0,-999.0,94,0.00,,,-99.99,0.000000,,2013-06-07 02:52:00,
2013-06-06 23:02:00,75.0,73.0,-100.00,SW,217,4.0,-999.0,94,0.00,,,-99.99,0.000000,,2013-06-07 03:02:00,
2013-06-06 23:12:00,75.0,73.0,-100.00,SW,217,4.0,-999.0,93,0.00,,,-99.99,0.000000,,2013-06-07 03:12:00,
2013-06-06 23:22:00,75.0,73.0,-100.00,SW,217,4.0,-999.0,93,0.00,,,-99.99,0.000000,,2013-06-07 03:22:00,
2013-06-06 23:33:00,75.0,73.0,-100.00,SW,218,4.0,-999.0,93,0.00,,,-99.99,0.000000,,2013-06-07 03:33:00,
2013-06-06 23:43:00,75.0,73.0,-100.00,SW,221,4.0,-999.0,94,0.00,,,-99.99,0.000000,,2013-06-07 03:43:00,
2013-06-06 23:53:00,75.0,73.0,-100.00,SW,221,4.0,-999.0,94,0.00,,,-99.99,0.000000,,2013-06-07 03:53:00,